Location: East Irvine
(33.6759°N, 117.7598°W)
Time: 23:19:46
(UTC+00:00)

SJ-12 - Pass Details

Date: 15 November 2025
Orbit: 517 x 528 km, 97.8° (Epoch: 13 December)

Event Time Altitude Azimuth Distance (km) Brightness Sun altitude
Rises 01:45:47 0° 174° (S) 2,646 7.4 -12.2°
Reaches altitude 10° 01:47:53 10° 178° (S) 1,759 6.5 -12.6°
Maximum altitude 01:51:39 62° 259° (W) 592 4.3 -13.4°
Drops below altitude 10° 01:55:25 10° 341° (NNW) 1,763 6.5 -14.1°
Sets 01:57:32 0° 345° (NNW) 2,653 7.4 -14.6°
